Weather reports worldwide

Advertisment
Farnborough, United Kingdom (3768): temperature & dewpoint: 18.04.2019 08:00:00 - 24.04.2019 08:00:00 (BST)Farnborough, United Kingdom (3768): temperature -100cm: 18.04.2019 08:00:00 - 24.04.2019 08:00:00 (BST)Farnborough, United Kingdom (3768): wind speed: 18.04.2019 08:00:00 - 24.04.2019 08:00:00 (BST)Farnborough, United Kingdom (3768): wind direction: 18.04.2019 08:00:00 - 24.04.2019 08:00:00 (BST)Farnborough, United Kingdom (3768): reduced air pressure: 18.04.2019 08:00:00 - 24.04.2019 08:00:00 (BST)Farnborough, United Kingdom (3768): visibility: 18.04.2019 08:00:00 - 24.04.2019 08:00:00 (BST)Farnborough, United Kingdom (3768): precipitation: 18.04.2019 08:00:00 - 24.04.2019 08:00:00 (BST)
Date & Time tt [°C] td [°C] tt -100cm [°C] ff [km/h] ff [kn] dd ppp [hPa] vv [km] rr [mm]
24.04.2019 08:00:00 12,0 8,0 - 9 5 ESE - 8 -
24.04.2019 07:00:00 10,9 8,2 - 9 5 SE 992,5 7 0,0
24.04.2019 06:00:00 10,7 8,0 - 11 6 SE 992,6 5 0,0
24.04.2019 05:00:00 9,9 7,1 - 4 2 SE 992,7 6 0,0
24.04.2019 04:00:00 10,5 7,1 - 4 2 E 993,1 6 0,0
24.04.2019 03:00:00 11,2 7,5 - 8 4 ESE 993,7 7 0,0
24.04.2019 02:00:00 11,3 7,5 - 8 4 E 993,7 8 0,0
24.04.2019 01:00:00 10,9 7,1 - 8 4 E 994,2 9 0,0
24.04.2019 00:00:00 11,4 6,7 - 8 4 E 994,6 10 0,0
23.04.2019 23:00:00 11,8 6,1 - 9 5 E 994,9 10 0,0
23.04.2019 22:00:00 12,9 6,4 - 9 5 ENE 995,2 10 0,0
23.04.2019 21:00:00 13,0 6,4 - 9 5 E 995,4 10 0,0
23.04.2019 20:00:00 14,6 6,6 - 16 9 E 995,4 10 0,0
23.04.2019 19:00:00 16,8 7,5 - 16 9 E 995,2 10 0,0
23.04.2019 18:00:00 17,8 7,6 - 21 11 ENE 995,1 10 0,0
23.04.2019 17:00:00 18,5 7,7 - 24 13 ENE 995,2 10 0,0
23.04.2019 16:00:00 20,0 7,2 - 24 13 E 995,1 10 0,0
23.04.2019 15:00:00 20,8 8,1 - 18 10 ENE 995,4 10 0,0
23.04.2019 14:00:00 20,9 9,8 - 15 8 NE 995,8 10 0,0
23.04.2019 13:00:00 20,4 9,9 - 5 3 - 996,2 10 0,0
23.04.2019 12:00:00 18,4 10,8 - 5 3 - 996,8 10 0,0
23.04.2019 11:00:00 17,1 9,2 - 9 5 ENE 997,1 10 0,0
23.04.2019 10:00:00 15,3 9,0 10,2 8 4 ENE 997,3 10 0,0
23.04.2019 09:00:00 13,6 8,4 - 13 7 ENE 997,5 10 0,0
23.04.2019 08:00:00 12,5 9,3 - 8 4 E 997,8 8 0,0
23.04.2019 07:00:00 8,2 7,1 - 2 1 SSW 997,9 6 0,0
23.04.2019 06:00:00 8,3 7,2 - 4 2 SW 997,9 6 0,0
23.04.2019 05:00:00 7,6 6,1 - 8 4 SW 998,4 10 0,0
23.04.2019 04:00:00 7,4 5,2 - 4 2 WSW 999,2 10 0,0
23.04.2019 03:00:00 8,6 6,6 - 8 4 SW 999,6 10 0,0
23.04.2019 02:00:00 9,6 6,4 - 4 2 SSW 1000,3 10 0,0
23.04.2019 01:00:00 10,3 6,4 - 8 4 SSW 1000,6 10 0,0
23.04.2019 00:00:00 13,2 8,1 - 8 4 WSW 1001,0 10 0,0
22.04.2019 23:00:00 15,0 7,2 - 4 2 ENE 1001,5 10 0,0
22.04.2019 22:00:00 15,5 7,4 - 5 3 E 1002,0 10 0,0
22.04.2019 21:00:00 16,4 6,2 - 8 4 ESE 1002,0 10 0,0
22.04.2019 20:00:00 18,1 6,4 - 11 6 SE 1001,9 10 0,0
22.04.2019 19:00:00 19,5 4,9 - 18 10 SSE 1001,9 10 0,0
22.04.2019 18:00:00 20,5 5,6 - 15 8 SSE 1001,8 10 0,0
22.04.2019 17:00:00 21,9 4,7 - 18 10 SE 1001,9 10 0,0
22.04.2019 16:00:00 22,8 5,2 - 16 9 SE 1002,1 10 0,0
22.04.2019 15:00:00 23,2 5,4 - 18 10 SSE 1002,7 10 0,0
22.04.2019 14:00:00 23,2 5,4 - 21 11 SSE 1003,5 10 0,0
22.04.2019 13:00:00 22,1 9,5 - 11 6 ESE 1004,3 10 0,0
22.04.2019 12:00:00 19,6 8,6 - 11 6 E 1005,3 10 0,0
22.04.2019 11:00:00 16,9 7,5 - 8 4 E 1006,0 9 0,0
22.04.2019 10:00:00 14,3 7,1 10,0 8 4 ENE 1006,9 7 0,0
22.04.2019 09:00:00 11,9 6,4 - 8 4 ENE 1007,5 6 0,0
22.04.2019 08:00:00 6,6 4,6 - 4 2 SW 1008,4 6 0,0
22.04.2019 07:00:00 4,4 2,6 - 5 3 SW 1009,0 8 0,0
22.04.2019 06:00:00 4,4 2,2 - 4 2 SSW 1009,4 10 0,0
22.04.2019 05:00:00 4,3 1,4 - 5 3 SW 1009,9 10 0,0
22.04.2019 04:00:00 5,5 2,3 - 4 2 S 1010,8 10 0,0
22.04.2019 03:00:00 6,3 2,8 - 4 2 - 1011,6 10 0,0
22.04.2019 02:00:00 8,0 3,1 - 5 3 S 1012,1 10 0,0
22.04.2019 01:00:00 11,4 4,0 - 8 4 ENE 1013,0 10 0,0
22.04.2019 00:00:00 11,9 3,9 - 8 4 E 1013,8 10 0,0
21.04.2019 23:00:00 12,7 4,0 - 5 3 - 1014,1 10 0,0
21.04.2019 22:00:00 14,1 4,7 - 9 5 ESE 1014,7 10 0,0
21.04.2019 21:00:00 16,3 6,0 - 9 5 ESE 1015,0 10 0,0
21.04.2019 20:00:00 18,4 6,2 - 8 4 S 1014,8 10 0,0
21.04.2019 19:00:00 20,5 8,1 - 11 6 SW 1014,6 10 0,0
21.04.2019 18:00:00 22,7 4,3 - 5 3 - 1015,1 10 0,0
21.04.2019 17:00:00 23,0 5,7 - 9 5 ESE 1015,8 10 0,0
21.04.2019 16:00:00 23,2 6,5 - 5 3 - 1016,6 10 0,0
21.04.2019 15:00:00 22,8 7,0 - 11 6 - 1017,6 10 0,0
21.04.2019 14:00:00 22,5 6,2 - 5 3 - 1018,5 10 0,0
21.04.2019 13:00:00 22,0 6,1 - 9 5 E 1019,3 10 0,0
21.04.2019 12:00:00 20,8 7,1 - 5 3 - 1020,1 10 0,0
21.04.2019 11:00:00 19,0 7,4 - 9 5 ENE 1021,0 10 0,0
21.04.2019 10:00:00 16,5 7,6 9,7 2 1 - 1021,9 10 0,0
21.04.2019 09:00:00 12,3 6,9 - 2 1 - 1022,7 10 0,0
21.04.2019 08:00:00 8,3 6,2 - 0 0 N 1023,3 10 0,0
21.04.2019 07:00:00 3,7 2,7 - 2 1 - 1023,9 8 0,0
21.04.2019 06:00:00 2,9 1,7 - 5 3 SW 1024,0 8 0,0
21.04.2019 05:00:00 3,8 2,6 - 2 1 - 1024,4 10 0,0
21.04.2019 04:00:00 3,1 1,5 - 8 4 SW 1024,9 10 0,0
21.04.2019 03:00:00 3,8 2,2 - 9 5 SW 1025,6 10 0,0
21.04.2019 02:00:00 4,6 1,2 - 8 4 SW 1026,2 10 0,0
21.04.2019 01:00:00 7,4 2,8 - 5 3 SW 1026,9 10 0,0
21.04.2019 00:00:00 7,8 2,2 - 5 3 SW 1027,4 10 0,0
20.04.2019 23:00:00 9,8 3,3 - 5 3 - 1027,6 10 0,0
20.04.2019 22:00:00 14,3 3,8 - 13 7 E 1027,5 10 0,0
20.04.2019 21:00:00 16,1 5,2 - 16 9 E 1027,5 10 0,0
20.04.2019 20:00:00 18,0 5,6 - 11 6 E 1026,8 10 0,0
20.04.2019 19:00:00 21,0 6,3 - 15 8 E 1026,7 10 0,0
20.04.2019 18:00:00 22,6 5,5 - 9 5 ENE 1026,9 10 0,0
20.04.2019 17:00:00 23,3 5,9 - 13 7 NE 1027,4 10 0,0
20.04.2019 16:00:00 23,5 5,6 - 13 7 NNE 1027,8 10 0,0
20.04.2019 15:00:00 23,1 6,0 - 15 8 NE 1028,5 10 0,0
20.04.2019 14:00:00 22,8 7,2 - 15 8 ENE 1029,1 22 0,0
20.04.2019 13:00:00 21,6 7,2 - 16 9 ENE 1029,7 10 0,0
20.04.2019 12:00:00 20,4 7,4 - 15 8 NE 1030,3 10 0,0
20.04.2019 11:00:00 19,1 7,7 - 16 9 NNE 1030,5 10 0,0
20.04.2019 10:00:00 17,6 7,9 9,5 11 6 NNE 1030,7 10 0,0
20.04.2019 09:00:00 12,5 7,8 - 5 3 - 1031,1 10 0,0
20.04.2019 08:00:00 9,0 8,1 - 2 1 - 1031,4 8 0,0
20.04.2019 07:00:00 5,5 5,0 - 0 0 N 1031,3 5 0,0
20.04.2019 06:00:00 4,6 3,9 - 0 0 N 1031,1 8 0,0
20.04.2019 05:00:00 5,9 4,5 - 5 3 W 1030,9 10 0,0
20.04.2019 04:00:00 4,3 3,1 - 9 5 WSW 1031,3 10 0,0
20.04.2019 03:00:00 4,7 2,9 - 5 3 - 1031,0 10 0,0
20.04.2019 02:00:00 5,8 3,9 - 5 3 SW 1030,9 10 0,0
20.04.2019 01:00:00 7,2 3,9 - 4 2 SSW 1030,9 10 0,0
20.04.2019 00:00:00 7,5 3,9 - 5 3 SSW 1031,0 10 0,0
19.04.2019 23:00:00 8,6 3,8 - 5 3 SW 1030,8 10 0,0
19.04.2019 22:00:00 10,9 3,3 - 4 2 - 1030,5 10 0,0
19.04.2019 21:00:00 14,6 3,9 - 11 6 E 1030,0 10 0,0
19.04.2019 20:00:00 17,0 4,9 - 13 7 E 1029,3 10 0,0
19.04.2019 19:00:00 20,1 5,0 - 18 10 E 1028,5 10 0,0
19.04.2019 18:00:00 21,7 5,2 - 16 9 ENE 1027,9 10 0,0
19.04.2019 17:00:00 22,6 4,9 - 15 8 ENE 1027,6 10 0,0
19.04.2019 16:00:00 22,9 6,0 - 16 9 E 1027,7 10 0,0
19.04.2019 15:00:00 22,6 7,6 - 18 10 NE 1028,0 10 0,0
19.04.2019 14:00:00 22,0 7,0 - 18 10 NE 1028,2 10 0,0
19.04.2019 13:00:00 20,9 7,4 - 22 12 ENE 1027,8 10 0,0
19.04.2019 12:00:00 19,8 8,1 - 18 10 ENE 1028,1 10 0,0
19.04.2019 11:00:00 18,0 7,8 - 11 6 NE 1027,9 10 0,0
19.04.2019 10:00:00 15,4 7,1 9,4 8 4 NNE 1028,2 10 0,0
19.04.2019 09:00:00 13,1 7,1 - 11 6 NE 1028,0 9 0,0
19.04.2019 08:00:00 11,1 7,9 - 4 2 - 1027,6 9 0,0
19.04.2019 07:00:00 4,5 3,7 - 2 1 WSW 1027,5 4,9 0,0
19.04.2019 06:00:00 4,1 3,5 - 2 1 WSW 1026,9 6 0,0
19.04.2019 05:00:00 4,5 3,9 - 4 2 - 1026,7 7 0,0
19.04.2019 04:00:00 3,7 2,1 - 2 1 WSW 1026,4 8 0,0
19.04.2019 03:00:00 5,4 3,7 - 8 4 SW 1026,0 10 0,0
19.04.2019 02:00:00 8,5 5,1 - 9 5 NE 1025,9 10 0,0
19.04.2019 01:00:00 8,2 4,1 - 2 1 - 1025,9 10 0,0
19.04.2019 00:00:00 11,5 5,3 - 9 5 ENE 1025,8 10 0,0
18.04.2019 23:00:00 12,0 5,5 - 13 7 ENE 1025,3 10 0,0
18.04.2019 22:00:00 14,0 5,5 - 16 9 ENE 1025,0 10 0,0
18.04.2019 21:00:00 14,4 5,1 - 15 8 ENE 1024,6 10 0,0
18.04.2019 20:00:00 16,0 5,6 - 9 5 NE 1023,9 10 0,0
18.04.2019 19:00:00 17,4 5,2 - 18 10 ENE 1023,0 10 0,0
18.04.2019 18:00:00 19,3 6,1 - 21 11 ENE 1022,3 10 0,0
18.04.2019 17:00:00 19,6 6,6 - 21 11 ENE 1022,0 10 0,0
18.04.2019 16:00:00 19,8 8,3 - 24 13 E 1021,8 10 0,0
18.04.2019 15:00:00 20,3 9,6 - 24 13 ENE 1021,8 10 0,0
18.04.2019 14:00:00 19,7 9,1 - 22 12 ENE 1022,0 10 0,0
18.04.2019 13:00:00 19,1 9,9 - 24 13 ENE 1022,2 10 0,0
18.04.2019 12:00:00 16,7 10,2 - 16 9 NE 1022,5 7 0,0
18.04.2019 11:00:00 15,1 10,1 - 16 9 ENE 1022,8 4,5 0,0
18.04.2019 10:00:00 13,0 9,8 9,2 16 9 ENE 1023,0 3,1 0,0
18.04.2019 09:00:00 10,6 8,9 - 15 8 ENE 1022,8 2,1 0,0
18.04.2019 08:00:00 9,5 8,6 - 15 8 ENE 1022,4 1,5 0,0

tt = temperature
td = dewpoint
tt -100cm = temperature -100cm
ff = wind speed
dd = wind direction
ppp = reduced air pressure
vv = visibility
rr = precipitation

Next stations